Wind_Speed
34 34 32 29 29 29 31 34 34 30 26 27 24 21 19 20 24 25 27 30 33 35 36 37 37 37 36 36 36 36 36 35 37 36 34 31 30 29 30 32 34 35 36 37
35 32 27 29 31 32 33 34 33 29 29 30 28 26 24 24 25 27 29 32 35 38 39 39 40 40 39 38 38 39 39 40 39 39 38 36 33 33 35 36 37 38 39 41
31 26 29 32 32 32 32 32 30 28 29 31 32 31 27 26 26 29 32 34 37 40 41 41 42 42 41 40 39 40 42 43 42 41 41 38 37 37 38 38 39 40 42 43
30 30 33 34 33 31 28 27 28 28 31 33 34 36 30 28 29 31 32 34 36 39 40 42 40 39 38 38 39 42 44 45 46 45 42 39 38 37 37 38 40 41 43 44
28 30 32 31 29 27 24 22 24 26 29 32 34 37 33 31 33 35 36 38 39 40 41 40 37 36 36 37 41 43 45 48 47 42 40 37 35 36 37 38 40 42 43 45
27 32 33 29 26 21 19 20 24 27 28 28 24 29 28 24 31 36 40 42 42 41 39 37 35 35 36 39 42 44 47 46 44 42 39 37 36 36 38 39 41 42 44 45
29 33 34 31 27 23 21 22 24 26 25 20 15 21 17 17 23 28 31 33 33 34 33 33 32 33 36 40 43 45 47 47 46 44 41 39 37 38 40 41 43 44 46 47
28 31 31 28 24 21 21 23 24 23 21 18 18 19 14 17 20 21 22 23 25 26 28 30 31 33 37 41 44 46 46 46 45 43 41 40 40 41 43 44 45 47 48 49
28 28 26 24 21 21 21 23 22 23 22 22 21 19 18 19 20 22 23 24 25 27 29 31 33 36 39 42 43 44 43 41 40 40 40 41 43 44 45 47 48 50 52 52
27 27 28 27 26 27 25 22 24 26 25 25 23 20 21 23 24 25 27 28 29 30 32 34 36 39 41 42 43 42 40 37 37 37 39 42 44 45 47 49 51 53 54 55
28 30 32 30 28 27 28 28 28 26 25 25 23 22 23 24 27 29 30 31 32 34 35 37 38 40 42 43 42 43 38 34 35 37 40 42 45 47 49 51 53 55 56 57
31 32 34 32 27 24 27 31 32 31 27 25 24 27 28 29 29 30 32 34 36 37 38 38 40 41 43 44 43 40 35 34 36 39 42 45 47 49 51 53 55 56 58 60
34 34 34 33 30 28 28 29 32 31 29 28 28 31 32 33 33 34 36 38 41 42 43 42 42 43 44 45 43 40 37 37 39 42 45 48 50 53 54 56 58 60 62 64
37 37 36 35 37 36 33 31 31 32 32 32 32 34 36 38 38 39 40 42 43 43 43 43 44 45 46 47 44 41 40 40 43 46 49 51 54 56 57 59 62 63 64 65
39 40 40 39 39 40 40 37 36 35 35 35 36 39 42 44 45 45 46 47 46 45 42 42 42 44 45 46 47 47 46 47 48 50 52 54 56 58 60 61 62 62 62 61
40 40 40 41 41 42 44 44 43 41 40 42 45 47 48 49 49 50 50 50 48 45 41 41 44 46 48 49 51 51 51 51 51 52 53 55 56 57 58 59 60 59 59 59
42 41 40 40 39 40 44 47 48 47 46 48 49 50 49 49 48 47 46 47 48 48 49 49 49 50 51 51 52 52 52 52 52 52 52 53 53 53 54 56 56 57 56 56
41 41 40 39 38 37 40 44 46 47 48 50 52 53 53 53 53 53 54 55 55 56 55 54 53 52 52 52 51 51 51 50 50 50 49 49 50 50 51 52 52 52 52 52
36 36 37 37 36 35 34 37 40 41 43 45 47 50 52 53 53 53 53 53 54 54 54 53 52 52 51 50 50 49 49 48 47 46 45 45 46 46 47 48 49 49 50 49
33 35 35 36 36 35 35 34 35 37 39 40 42 44 46 47 47 48 49 50 50 50 50 50 50 50 49 48 47 46 45 43 42 41 41 41 42 44 45 46 46 45 45 44
26 29 30 30 31 31 31 30 30 33 35 36 38 40 42 44 44 45 45 46 46 46 47 47 47 46 46 45 44 42 40 38 37 37 38 39 40 42 42 42 43 43 43 43
18 19 21 23 23 24 24 24 25 27 29 31 34 36 39 41 42 44 44 45 45 44 44 43 43 43 42 41 40 38 36 35 36 37 38 39 39 39 39 39 39 40 41 41
18 18 19 20 22 23 23 24 24 25 26 28 30 33 34 36 38 40 41 41 41 41 40 40 39 39 37 36 34 33 33 34 34 35 36 36 36 37 37 38 38 38 37 36
16 17 18 19 20 22 22 23 24 25 26 28 30 32 33 34 35 36 37 38 38 37 36 36 35 34 32 31 31 31 32 33 33 32 33 34 35 36 36 36 35 34 32 30
15 15 17 18 19 21 23 24 25 26 27 28 30 31 32 33 34 34 34 33 32 30 29 28 28 27 27 27 28 29 29 29 30 31 32 33 34 34 33 31 30 28 27 25
14 15 17 19 21 23 24 25 26 27 27 27 28 28 28 28 28 28 27 25 23 21 21 20 21 22 23 23 24 25 26 28 30 31 31 31 30 29 27 26 25 25 23 22
Wind_Direction
225 226 227 230 232 232 234 237 238 235 228 229 230 237 231 228 236 242 251 262 270 277 283 287 292 296 299 301 304 305 304 300 298 294 291 287 284 285 288 291 292 293 294 296
227 228 226 226 228 227 229 233 233 230 226 232 233 237 238 233 236 242 250 259 268 275 281 287 292 295 297 298 300 301 301 297 292 288 286 281 279 281 282 283 285 287 290 292
231 226 225 225 226 228 230 234 232 227 222 230 238 241 241 242 241 241 246 255 263 271 278 285 289 292 294 295 296 297 296 294 287 285 282 277 276 277 277 279 281 285 287 288
223 218 223 224 224 224 227 231 231 226 225 228 238 245 239 239 240 241 247 256 263 269 274 279 284 287 290 291 292 293 291 290 287 283 278 277 276 273 276 279 282 284 286 289
220 217 222 224 223 224 221 221 228 233 237 239 238 248 247 241 242 244 249 255 261 265 268 273 278 283 286 286 287 288 287 287 286 280 280 277 276 277 280 282 284 286 289 292
213 212 214 213 212 215 216 221 232 238 243 247 248 251 253 247 246 246 249 253 257 260 263 267 274 280 282 281 282 283 286 288 287 286 288 284 283 282 283 285 286 288 290 292
210 212 213 208 204 204 213 225 235 240 244 247 240 245 244 238 241 246 248 250 252 254 258 264 270 274 274 274 276 279 285 289 291 292 293 289 287 286 286 287 288 290 290 291
212 214 214 211 208 208 216 227 236 242 245 242 232 239 242 247 248 253 257 259 259 257 258 262 265 267 268 269 273 278 284 288 291 292 291 289 288 287 288 289 290 290 291 292
211 210 209 207 206 215 223 234 243 250 250 248 239 239 246 253 261 265 267 270 271 266 265 264 265 266 267 270 274 277 282 286 289 289 288 288 287 287 288 289 290 290 291 291
214 208 202 202 208 216 223 233 244 249 252 252 249 247 247 245 252 259 264 268 271 272 272 272 271 271 271 274 277 279 281 283 286 287 287 287 287 287 287 287 288 289 289 290
216 213 203 207 216 226 226 227 235 243 248 252 255 254 250 249 249 252 257 262 267 270 273 276 277 277 278 279 281 283 281 284 286 286 286 286 286 286 285 286 287 288 289 291
223 221 213 210 220 232 233 230 231 234 239 247 254 255 254 254 254 256 259 262 266 270 274 277 278 279 280 282 283 285 284 286 286 285 284 284 284 284 285 286 287 288 290 293
225 227 225 216 218 224 225 227 230 232 235 239 244 250 258 261 263 264 266 267 268 270 273 275 277 279 282 286 286 286 286 286 284 283 282 282 283 283 284 286 287 289 290 292
226 228 228 224 221 224 225 225 228 231 235 238 242 251 261 267 269 269 269 271 271 271 272 275 279 281 283 286 288 291 290 288 285 283 282 282 282 283 284 285 287 289 291 293
233 233 233 232 229 229 234 236 238 240 243 246 251 258 265 269 271 271 272 272 273 273 272 275 279 284 286 288 290 291 291 289 287 286 284 284 283 284 285 287 289 291 293 294
239 239 240 240 239 236 239 244 248 252 255 257 260 264 267 268 268 269 270 269 270 271 276 281 286 288 289 289 290 290 290 290 288 287 286 286 286 287 288 289 290 292 294 296
249 248 248 249 250 248 248 248 250 253 255 258 260 263 265 265 266 269 271 274 277 280 285 289 290 289 289 289 289 290 290 289 289 288 288 288 288 288 288 289 291 293 296 297
252 253 253 254 253 252 253 251 251 252 252 254 256 259 262 265 268 272 276 279 282 285 287 288 288 288 289 290 290 290 290 290 289 289 289 288 288 288 289 291 293 295 297 298
247 250 252 251 250 250 250 253 253 254 254 254 256 258 261 264 268 271 274 277 280 282 284 286 288 290 291 291 292 292 291 291 290 289 289 289 289 291 292 293 295 296 297 299
246 248 250 252 254 255 256 256 256 256 256 257 259 261 264 267 269 271 274 276 278 281 284 287 289 290 291 292 292 293 293 292 292 291 291 291 292 293 293 295 297 299 300 302
249 250 251 252 255 257 259 262 262 260 261 262 263 264 267 269 271 274 275 278 280 283 285 286 288 289 290 291 292 293 293 293 294 294 294 294 295 296 297 298 300 302 303 303
251 252 253 253 256 261 263 267 268 268 267 266 266 267 268 269 271 273 276 279 281 283 284 285 287 288 290 291 292 293 293 294 294 295 296 297 298 299 301 302 303 304 304 305
264 266 265 264 266 269 270 272 273 274 272 272 270 270 270 272 273 275 276 279 281 282 284 285 287 289 290 291 292 293 294 295 295 297 298 300 302 304 305 305 305 306 306 306
266 267 268 269 271 273 273 273 274 274 273 273 273 274 276 278 278 279 280 281 282 283 284 286 287 288 289 290 292 295 296 297 298 300 303 304 306 306 306 306 306 306 306 306
261 267 271 274 275 274 274 275 275 275 275 276 277 278 279 280 281 282 283 284 285 285 285 286 288 290 292 293 295 297 300 303 304 306 307 307 307 307 306 306 306 307 308 308
266 270 272 274 276 278 280 281 281 281 280 280 280 280 281 283 284 285 285 285 285 286 287 288 291 293 296 299 302 306 309 309 310 310 310 309 309 309 309 309 310 310 310 310
Height
5823 5827 5832 5838 5841 5844 5846 5848 5851 5855 5858 5856 5856 5858 5862 5865 5865 5866 5866 5865 5864 5864 5863 5862 5862 5862 5862 5862 5861 5860 5858 5855 5852 5850 5849 5848 5848 5846 5845 5843 5841 5839 5838 5836
5817 5822 5828 5830 5832 5835 5837 5840 5843 5849 5852 5851 5850 5852 5854 5857 5858 5860 5861 5861 5859 5858 5857 5856 5855 5855 5856 5856 5855 5853 5851 5848 5845 5843 5841 5840 5840 5839 5838 5835 5833 5831 5830 5828
5812 5819 5820 5822 5825 5828 5831 5834 5838 5842 5845 5844 5844 5845 5848 5850 5852 5854 5855 5856 5855 5854 5852 5851 5850 5850 5850 5849 5848 5846 5843 5840 5835 5833 5831 5831 5831 5830 5829 5827 5825 5823 5821 5819
5805 5810 5812 5815 5818 5822 5826 5830 5832 5834 5836 5837 5839 5838 5843 5845 5846 5847 5849 5849 5849 5847 5846 5846 5845 5845 5844 5843 5841 5838 5836 5832 5828 5823 5820 5821 5821 5821 5820 5818 5817 5815 5812 5809
5800 5804 5806 5810 5815 5817 5821 5824 5826 5827 5829 5831 5833 5833 5837 5840 5841 5842 5842 5842 5842 5841 5841 5840 5840 5839 5838 5836 5834 5831 5828 5824 5818 5814 5812 5812 5812 5812 5811 5810 5808 5806 5804 5801
5794 5797 5800 5805 5809 5812 5815 5818 5820 5822 5823 5826 5829 5829 5830 5833 5833 5833 5834 5834 5834 5834 5834 5834 5833 5833 5831 5829 5827 5824 5820 5815 5810 5806 5806 5806 5805 5805 5803 5802 5800 5798 5796 5792
5788 5791 5794 5798 5801 5805 5809 5813 5815 5817 5818 5821 5823 5822 5824 5824 5824 5824 5825 5825 5826 5826 5827 5827 5826 5825 5824 5822 5819 5816 5813 5809 5806 5802 5800 5800 5799 5798 5796 5794 5792 5790 5787 5783
5783 5787 5791 5794 5798 5801 5804 5807 5810 5812 5814 5816 5817 5817 5819 5818 5818 5818 5818 5818 5819 5819 5819 5819 5818 5817 5815 5813 5810 5808 5806 5802 5799 5797 5795 5793 5791 5790 5788 5786 5783 5780 5777 5773
5779 5785 5790 5792 5795 5797 5799 5802 5805 5807 5808 5809 5811 5813 5813 5812 5812 5812 5812 5812 5812 5812 5812 5811 5810 5808 5806 5804 5802 5800 5798 5795 5792 5790 5787 5785 5783 5781 5779 5776 5773 5770 5766 5762
5775 5781 5785 5787 5789 5791 5794 5797 5799 5800 5801 5802 5805 5806 5806 5807 5806 5806 5806 5806 5806 5805 5805 5804 5802 5800 5797 5795 5793 5791 5789 5787 5785 5782 5780 5777 5775 5772 5769 5766 5762 5758 5754 5750
5768 5773 5779 5782 5783 5785 5787 5790 5790 5792 5794 5796 5797 5801 5799 5799 5800 5800 5800 5800 5799 5799 5798 5797 5794 5792 5790 5788 5785 5782 5780 5778 5776 5774 5771 5768 5765 5762 5759 5755 5751 5746 5742 5737
5762 5766 5771 5776 5778 5779 5780 5781 5782 5784 5786 5789 5790 5793 5790 5791 5792 5793 5793 5793 5791 5790 5789 5788 5786 5784 5782 5779 5777 5773 5771 5769 5767 5765 5762 5759 5755 5752 5748 5743 5739 5734 5729 5723
5755 5759 5765 5771 5774 5773 5773 5773 5774 5776 5778 5780 5781 5784 5782 5783 5784 5785 5785 5785 5783 5782 5781 5779 5777 5775 5773 5770 5767 5765 5762 5761 5758 5755 5752 5748 5744 5740 5736 5731 5726 5721 5716 5711
5749 5752 5757 5762 5764 5765 5766 5767 5767 5769 5770 5771 5773 5775 5775 5775 5776 5777 5776 5776 5774 5773 5771 5769 5768 5766 5763 5761 5758 5755 5753 5750 5747 5744 5740 5736 5732 5728 5723 5718 5713 5708 5702 5697
5744 5747 5750 5753 5757 5760 5761 5760 5759 5760 5762 5764 5766 5767 5768 5768 5768 5768 5767 5766 5764 5762 5760 5759 5758 5756 5753 5751 5748 5745 5742 5739 5735 5731 5727 5723 5719 5714 5709 5704 5698 5693 5687 5682
5738 5741 5743 5746 5749 5752 5754 5752 5751 5752 5754 5756 5758 5760 5760 5760 5760 5759 5757 5755 5753 5751 5749 5748 5747 5745 5743 5740 5737 5734 5730 5726 5722 5718 5714 5709 5705 5700 5695 5689 5684 5678 5673 5668
5728 5732 5734 5736 5739 5741 5741 5741 5742 5744 5746 5749 5750 5751 5751 5751 5750 5749 5746 5744 5742 5740 5739 5737 5736 5734 5732 5728 5725 5721 5717 5713 5709 5705 5700 5696 5691 5686 5681 5676 5670 5665 5660 5654
5719 5721 5724 5727 5730 5732 5730 5729 5732 5735 5737 5739 5740 5741 5741 5741 5740 5738 5736 5734 5732 5730 5727 5725 5723 5721 5718 5715 5712 5708 5704 5700 5695 5691 5687 5682 5677 5672 5668 5663 5658 5653 5647 5642
5710 5712 5714 5717 5719 5720 5720 5720 5723 5726 5727 5729 5730 5730 5730 5729 5729 5727 5725 5724 5721 5719 5716 5714 5711 5709 5706 5702 5699 5695 5691 5686 5682 5678 5674 5669 5664 5660 5655 5650 5646 5641 5635 5630
5702 5704 5706 5707 5709 5711 5713 5714 5714 5717 5716 5719 5719 5719 5718 5718 5718 5717 5715 5713 5710 5708 5705 5703 5700 5698 5694 5691 5687 5683 5678 5674 5670 5666 5662 5657 5653 5648 5644 5639 5634 5628 5623 5617
5695 5696 5698 5699 5701 5703 5705 5705 5706 5709 5709 5710 5709 5708 5707 5707 5707 5706 5703 5701 5700 5698 5696 5693 5690 5687 5684 5680 5676 5672 5667 5663 5659 5655 5651 5646 5642 5637 5632 5627 5622 5616 5611 5606
5689 5690 5691 5693 5695 5698 5698 5698 5699 5699 5699 5699 5699 5698 5697 5697 5696 5695 5693 5691 5690 5688 5685 5683 5680 5677 5674 5670 5666 5662 5658 5654 5649 5645 5641 5636 5631 5626 5621 5616 5611 5606 5601 5595
5685 5686 5686 5688 5690 5690 5690 5691 5691 5691 5691 5690 5689 5688 5687 5687 5686 5685 5684 5682 5680 5678 5675 5673 5670 5667 5664 5660 5657 5653 5649 5645 5640 5635 5630 5625 5621 5616 5611 5606 5601 5596 5590 5585
5680 5680 5681 5681 5682 5682 5683 5683 5683 5683 5683 5682 5680 5679 5678 5677 5676 5675 5674 5672 5670 5667 5665 5663 5661 5658 5655 5651 5648 5644 5640 5636 5631 5626 5621 5616 5611 5606 5601 5596 5591 5586 5581 5577
5676 5676 5676 5676 5676 5676 5676 5676 5675 5675 5674 5673 5672 5671 5669 5668 5667 5665 5664 5662 5660 5658 5657 5654 5652 5649 5647 5644 5640 5636 5632 5628 5623 5618 5613 5608 5603 5597 5592 5587 5583 5578 5574 5570
5672 5672 5672 5671 5670 5670 5669 5668 5667 5666 5665 5664 5663 5662 5661 5659 5658 5656 5655 5654 5652 5651 5650 5648 5646 5643 5640 5637 5633 5629 5625 5620 5615 5610 5605 5600 5594 5589 5584 5580 5575 5571 5567 5563